Flag for Jersey Weather past 2 weeks in Saint Helier, Jersey

Now
79 °F

Sunny.


Feels Like: 79 °F
Forecast: 61 / 70 °F
Wind: 13 mph from Southeast

Location: Jersey Airport

Current Time: Aug 2, 2015 at 4:13:14 PM

Latest Report: Aug 2, 2015 at 3:20 PM


Visibility: 10 mi

Pressure: 29.92 "Hg

Humidity: 39%

Dew point: 52 °F

Location of Saint HelierLocation

Historic Weather in Saint Helier — Graph

°F

Saint Helier temperature yesterday

Maximum temperature yesterday: 64 °F (at 10:50 AM)
Minimum temperature yesterday: 54 °F (at 3:50 AM)
Average temperature yesterday: 60 °F

Past Weeks' High & Low Weather Summary

 TemperatureHumidityPressure
High79 °F (Aug 2, 2:50 PM)100% (Jul 19, 4:50 AM)30.15 "Hg (Jul 19, 4:50 AM)
Low50 °F (Jul 31, 5:20 AM)39% (Aug 2, 2:50 PM)29.59 "Hg (Jul 24, 3:50 PM)
Average61 °F81%29.95 "Hg
* Reported Jul 18 2:20 PM — Aug 2 2:50 PM, Saint Helier, Weather by CustomWeather, © 2015

Note: Actual official high and low records may vary slightly from our data, if they occured in-between our weather recording intervals... More about our weather records

Advertising

Saint Helier weather history for previous 24 hours

 ConditionsComfort  
Time TempWeatherWind HumidityBarometerVisibility
2:50 PM
Sun, Aug 2
79 °FSunny.13 mph39%29.95 "Hg10 mi
2:20 PM77 °FSunny.16 mph44%29.95 "Hg10 mi
1:50 PM77 °FSunny.16 mph44%29.95 "Hg10 mi
1:20 PM75 °FSunny.15 mph47%29.98 "Hg10 mi
12:50 PM73 °FSunny.18 mph50%29.98 "Hg10 mi
12:20 PM70 °FSunny.15 mph60%29.98 "Hg10 mi
11:50 AM70 °FSunny.13 mph64%30.01 "Hg10 mi
11:20 AM68 °FSunny.18 mph69%30.01 "Hg10 mi
10:50 AM66 °FSunny.15 mph68%30.01 "Hg10 mi
10:20 AM66 °FSunny.15 mph68%30.01 "Hg10 mi
9:50 AM64 °FSunny.17 mph73%30.04 "Hg10 mi
9:20 AM64 °FSunny.14 mph68%30.04 "Hg10 mi
8:50 AM63 °FSunny.13 mph73%30.04 "Hg10 mi
8:20 AM61 °FSunny.14 mph83%30.04 "Hg10 mi
7:50 AM61 °FSunny.16 mph83%30.04 "Hg10 mi
7:20 AM59 °FSunny.13 mph94%30.04 "Hg10 mi
6:50 AM57 °FSunny.10 mph94%30.04 "Hg10 mi
6:20 AM55 °FClear.9 mph100%30.04 "Hg10 mi
5:50 AM54 °FClear.10 mph100%30.04 "Hg10 mi
5:20 AM52 °FClear.9 mph100%30.04 "Hg10 mi
4:50 AM52 °FClear.9 mph100%30.04 "Hg10 mi
4:20 AM54 °FClear.8 mph94%30.04 "Hg10 mi
3:50 AM54 °FClear.12 mph94%30.04 "Hg10 mi
11:20 PM
Sat, Aug 1
54 °FClear.7 mph94%30.09 "Hg10 mi
10:20 PM54 °FPassing clouds.2 mph94%30.09 "HgN/A
9:20 PM57 °FPassing clouds.5 mph82%30.09 "HgN/A
8:50 PM57 °FPassing clouds.3 mph82%30.09 "HgN/A
8:20 PM61 °FPassing clouds.3 mph77%30.09 "HgN/A
7:50 PM61 °FPassing clouds.5 mph77%30.07 "HgN/A
7:20 PM61 °FPassing clouds.6 mph72%30.07 "HgN/A
6:50 PM63 °FPassing clouds.6 mph68%30.07 "HgN/A
6:20 PM63 °FPassing clouds.6 mph64%30.07 "HgN/A
5:50 PM63 °FPassing clouds.10 mph64%30.07 "HgN/A
5:20 PM63 °FPassing clouds.8 mph68%30.09 "HgN/A
4:50 PM63 °FPassing clouds.9 mph68%30.09 "HgN/A
4:20 PM64 °FPassing clouds.12 mph64%30.09 "HgN/A
Weather by CustomWeather, © 2015

See weather overviewHow to use our weather pages